User: anonymous   Login
Location: Akdamlar
(36.8729°N, 30.5187°E)
Time: 02:53:28
(UTC+00:00)
Language:

Cosmos 2151 Rocket - Orbit

View from above orbital plane
View from above orbital plane
View from above satellite
View from above satellite

Ground track
Ground track

The orbit data is extracted from the following two-line orbital elements,

1 21423U 91042B   20332.82874899 +.00000104 +00000-0 +10735-4 0  9998
2 21423 082.4959 224.2036 0019142 084.4630 275.8765 14.79806165567827
Epoch (UTC): 27 November 2020 19:53:23
Eccentricity: 0.0019142
inclination: 82.4959°
perigee height: 616 km
apogee height: 643 km
right ascension of ascending node: 224.2036°
argument of perigee: 84.4630°
revolutions per day: 14.79806165
mean anomaly at epoch: 275.8765°
orbit number at epoch: 56782

The dashed part of the orbit path shows where the satellite is in the earth's shadow,  

DLR